Flag for U.S.A. Weather past 2 weeks in Fresno, California, U.S.A.

Now
56 °F

Passing clouds.


Feels Like: 56 °F
Forecast: 58 / 87 °F
Wind: No wind

Location: Fresno Air Terminal

Current Time: Oct 24, 2014 at 6:36:53 AM

Latest Report: Oct 24, 2014 at 5:53 AM


Visibility: 10 mi

Pressure: 29.97 "Hg

Humidity: 70%

Dew point: 46 °F

Location of FresnoLocation

Historic Weather in Fresno — Graph

°F

Fresno temperature yesterday

Maximum temperature yesterday: 80 °F (at 1:53 PM)
Minimum temperature yesterday: 54 °F (at 6:53 AM)
Average temperature yesterday: 67 °F

Past Weeks' High & Low Weather Summary

 TemperatureHumidityPressure
High94 °F (Oct 13, 3:53 PM)78% (Oct 21, 7:53 AM)30.09 "Hg (Oct 21, 7:53 AM)
Low52 °F (Oct 22, 6:53 AM)10% (Oct 9, 3:53 PM)29.74 "Hg (Oct 14, 4:53 PM)
Average71 °F46%29.94 "Hg
* Reported Oct 9 4:53 AM — Oct 24 4:53 AM, Fresno, Weather by CustomWeather, © 2014

Note: Actual official high and low records may vary slightly from our data, if they occured in-between our weather recording intervals... More about our weather records

Advertising

Fresno weather history for previous 24 hours

 ConditionsComfort  
Time TempWeatherWind HumidityBarometerVisibility
4:53 AM
Oct 24
56 °FPassing clouds.No wind65%29.96 "Hg10 mi
3:53 AM58 °FPassing clouds.No wind62%29.96 "Hg10 mi
2:53 AM60 °FPassing clouds.No wind58%29.98 "Hg10 mi
1:53 AM60 °FPassing clouds.No wind58%29.99 "Hg10 mi
12:53 AM61 °FPassing clouds.No wind60%29.99 "Hg10 mi
11:53 PM
Oct 23
62 °FPassing clouds.3 mph58%29.98 "Hg10 mi
10:53 PM64 °FPassing clouds.No wind56%29.98 "Hg10 mi
9:53 PM64 °FPassing clouds.No wind54%29.98 "Hg10 mi
8:53 PM68 °FPassing clouds.No wind47%29.97 "Hg10 mi
7:53 PM72 °FPassing clouds.No wind40%29.96 "Hg10 mi
6:53 PM74 °FScattered clouds.3 mph37%29.96 "Hg10 mi
5:53 PM77 °FScattered clouds.7 mph32%29.96 "Hg10 mi
4:53 PM79 °FScattered clouds.5 mph29%29.96 "Hg10 mi
3:53 PM79 °FScattered clouds.No wind29%29.97 "Hg10 mi
2:53 PM80 °FPartly sunny.3 mph27%29.98 "Hg10 mi
1:53 PM80 °FPartly sunny.5 mph27%30.01 "Hg9 mi
12:53 PM78 °FScattered clouds.3 mph29%30.03 "Hg10 mi
11:53 AM73 °FPartly sunny.3 mph34%30.05 "Hg10 mi
10:53 AM70 °FPartly sunny.No wind39%30.07 "Hg10 mi
9:53 AM66 °FBroken clouds.No wind49%30.07 "Hg10 mi
8:53 AM62 °FBroken clouds.No wind54%30.06 "Hg9 mi
7:53 AM55 °FPassing clouds.3 mph69%30.04 "Hg10 mi
6:53 AM54 °FPassing clouds.3 mph69%30.03 "Hg10 mi
Weather by CustomWeather, © 2014

See weather overviewHow to use our weather pages